EJU62AB EGPF-EHAM

Flight info

Callsign EJU62AB
Flight time 1h 9m
Altitude 37000
Route NORBO Y96 HAVEN DCT ERKIT N110 DOLAS L603 LAMSO
Aircraft A320/M-SDE2E3FGHIJ1RWXYZ/LB1

Departure

Time 2026-05-07 18:50
Airport Glasgow Airport (EGPF)

Arrival

Time 2026-05-07 20:00
Airport Amsterdam Airport Schiphol (EHAM)
Time Latitude Longitude Altitude Speed Heading
2026-05-07 18:15 55.86423 -4.43745 31 ft 0 kts 62°
2026-05-07 18:38 55.86415 -4.43771 31 ft 4 kts 60°
2026-05-07 18:38 55.86401 -4.43812 31 ft 4 kts 53°
2026-05-07 18:38 55.86383 -4.43847 31 ft 4 kts 30°
2026-05-07 18:39 55.86364 -4.43855 31 ft 1 kts 332°
2026-05-07 18:39 55.86363 -4.43855 31 ft 0 kts 332°
2026-05-07 18:43 55.86370 -4.43861 30 ft 3 kts 332°
2026-05-07 18:43 55.86398 -4.43887 31 ft 6 kts 332°
2026-05-07 18:44 55.86448 -4.43936 31 ft 10 kts 332°
2026-05-07 18:44 55.86521 -4.44004 31 ft 13 kts 331°
2026-05-07 18:44 55.86599 -4.44008 30 ft 13 kts 40°
2026-05-07 18:44 55.86659 -4.43901 31 ft 12 kts 46°
2026-05-07 18:45 55.86713 -4.43800 31 ft 11 kts 49°
2026-05-07 18:45 55.86747 -4.43656 31 ft 15 kts 74°
2026-05-07 18:45 55.86776 -4.43466 31 ft 17 kts 74°
2026-05-07 18:45 55.86807 -4.43276 30 ft 15 kts 73°
2026-05-07 18:46 55.86838 -4.43089 31 ft 18 kts 73°
2026-05-07 18:46 55.86938 -4.42905 31 ft 24 kts 26°
2026-05-07 18:46 55.87076 -4.42802 31 ft 18 kts 19°
2026-05-07 18:46 55.87188 -4.42726 31 ft 16 kts 22°
2026-05-07 18:47 55.87290 -4.42658 31 ft 15 kts 19°
2026-05-07 18:47 55.87381 -4.42591 31 ft 13 kts 27°
2026-05-07 18:47 55.87446 -4.42485 31 ft 12 kts 46°
2026-05-07 18:47 55.87501 -4.42383 31 ft 11 kts 46°
2026-05-07 18:48 55.87550 -4.42293 31 ft 9 kts 46°
2026-05-07 18:48 55.87606 -4.42189 31 ft 15 kts 46°
2026-05-07 18:48 55.87687 -4.42032 31 ft 18 kts 47°
2026-05-07 18:48 55.87749 -4.41917 31 ft 10 kts 44°
2026-05-07 18:49 55.87804 -4.41864 30 ft 8 kts 15°
2026-05-07 18:49 55.87879 -4.41859 31 ft 13 kts 348°
2026-05-07 18:49 55.87915 -4.41971 31 ft 11 kts 248°
2026-05-07 18:49 55.87860 -4.42088 31 ft 16 kts 227°
2026-05-07 18:50 55.87654 -4.42468 31 ft 76 kts 226°
2026-05-07 18:50 55.87156 -4.43407 31 ft 132 kts 226°
2026-05-07 18:50 55.86465 -4.44707 423 ft 146 kts 223°
2026-05-07 18:50 55.85756 -4.46058 1096 ft 150 kts 224°
2026-05-07 18:51 55.84988 -4.47441 1593 ft 166 kts 221°
2026-05-07 18:51 55.84141 -4.48930 2161 ft 176 kts 223°
2026-05-07 18:51 55.83229 -4.50566 2677 ft 193 kts 223°
2026-05-07 18:51 55.82237 -4.52331 3244 ft 210 kts 223°
2026-05-07 18:52 55.81160 -4.54211 3874 ft 226 kts 223°
2026-05-07 18:52 55.79985 -4.56234 4452 ft 242 kts 224°
2026-05-07 18:52 55.78768 -4.58345 5334 ft 246 kts 224°
2026-05-07 18:52 55.77522 -4.60450 6226 ft 248 kts 217°
2026-05-07 18:53 55.76683 -4.61289 6716 ft 251 kts 201°
2026-05-07 18:53 55.74947 -4.61623 7616 ft 258 kts 174°
2026-05-07 18:53 55.73266 -4.60389 8430 ft 272 kts 147°
2026-05-07 18:53 55.72011 -4.57770 9177 ft 289 kts 120°
2026-05-07 18:54 55.71401 -4.54318 9977 ft 298 kts 105°
2026-05-07 18:54 55.70971 -4.50589 10352 ft 320 kts 104°
2026-05-07 18:54 55.70529 -4.46592 10744 ft 337 kts 104°
2026-05-07 18:54 55.70077 -4.42473 11435 ft 343 kts 104°
2026-05-07 18:55 55.69623 -4.38292 12187 ft 347 kts 104°
2026-05-07 18:55 55.69174 -4.34121 12941 ft 351 kts 104°
2026-05-07 18:55 55.68716 -4.29844 13678 ft 355 kts 104°
2026-05-07 18:55 55.68253 -4.25519 14321 ft 359 kts 104°
2026-05-07 18:56 55.67789 -4.21152 14968 ft 362 kts 104°
2026-05-07 18:56 55.67325 -4.16752 15615 ft 365 kts 104°
2026-05-07 18:56 55.66860 -4.12305 16260 ft 369 kts 104°
2026-05-07 18:56 55.66397 -4.07821 16903 ft 372 kts 104°
2026-05-07 18:57 55.65931 -4.03295 17546 ft 375 kts 104°
2026-05-07 18:57 55.65465 -3.98739 18189 ft 378 kts 104°
2026-05-07 18:57 55.64995 -3.94141 18726 ft 381 kts 104°
2026-05-07 18:57 55.64519 -3.89506 19247 ft 384 kts 104°
2026-05-07 18:58 55.64038 -3.84843 19775 ft 387 kts 104°
2026-05-07 18:58 55.63551 -3.80149 20319 ft 389 kts 104°
2026-05-07 18:58 55.63059 -3.75420 20859 ft 392 kts 104°
2026-05-07 18:58 55.62560 -3.70657 21364 ft 395 kts 104°
2026-05-07 18:59 55.62058 -3.65871 21825 ft 398 kts 104°
2026-05-07 18:59 55.61550 -3.61054 21943 ft 398 kts 104°
2026-05-07 18:59 55.61015 -3.56240 21969 ft 397 kts 109°
2026-05-07 18:59 55.59947 -3.51800 22380 ft 391 kts 126°
2026-05-07 19:00 55.58260 -3.48080 22889 ft 387 kts 138°
2026-05-07 19:00 55.56387 -3.44646 23391 ft 389 kts 138°
2026-05-07 19:00 55.54492 -3.41213 23813 ft 392 kts 138°
2026-05-07 19:00 55.52576 -3.37770 24241 ft 394 kts 138°
2026-05-07 19:01 55.50651 -3.34324 24667 ft 395 kts 138°
2026-05-07 19:01 55.48719 -3.30870 25084 ft 396 kts 138°
2026-05-07 19:01 55.46781 -3.27402 25498 ft 398 kts 138°
2026-05-07 19:01 55.44835 -3.23916 25907 ft 399 kts 138°
2026-05-07 19:02 55.42890 -3.20430 26325 ft 400 kts 138°
2026-05-07 19:02 55.40934 -3.16932 26733 ft 402 kts 138°
2026-05-07 19:02 55.38969 -3.13429 27141 ft 403 kts 138°
2026-05-07 19:02 55.36997 -3.09918 27548 ft 404 kts 138°
2026-05-07 19:03 55.35018 -3.06395 27946 ft 405 kts 138°
2026-05-07 19:03 55.33033 -3.02866 28347 ft 407 kts 138°
2026-05-07 19:03 55.31034 -2.99328 28735 ft 408 kts 138°
2026-05-07 19:03 55.29031 -2.95786 29104 ft 410 kts 138°
2026-05-07 19:04 55.27018 -2.92232 29475 ft 412 kts 138°
2026-05-07 19:04 55.24993 -2.88667 29843 ft 413 kts 138°
2026-05-07 19:04 55.22963 -2.85093 30165 ft 415 kts 138°
2026-05-07 19:04 55.20925 -2.81508 30458 ft 416 kts 138°
2026-05-07 19:05 55.18882 -2.77915 30734 ft 417 kts 138°
2026-05-07 19:05 55.16826 -2.74307 31013 ft 419 kts 138°
2026-05-07 19:05 55.14766 -2.70703 31289 ft 420 kts 138°
2026-05-07 19:05 55.12703 -2.67098 31658 ft 418 kts 138°
2026-05-07 19:06 55.10651 -2.63518 32067 ft 417 kts 138°
2026-05-07 19:06 55.06563 -2.56387 32839 ft 414 kts 138°
2026-05-07 19:06 55.04527 -2.52848 33222 ft 413 kts 138°
2026-05-07 19:07 55.02494 -2.49325 33601 ft 411 kts 138°
2026-05-07 19:07 55.00471 -2.45820 33980 ft 410 kts 138°
2026-05-07 19:07 54.98449 -2.42323 34289 ft 409 kts 138°
2026-05-07 19:07 54.96422 -2.38827 34504 ft 411 kts 138°
2026-05-07 19:08 54.94392 -2.35330 34713 ft 412 kts 138°
2026-05-07 19:08 54.92351 -2.31821 34916 ft 413 kts 138°
2026-05-07 19:08 54.90301 -2.28300 35132 ft 414 kts 138°
2026-05-07 19:08 54.88248 -2.24779 35335 ft 416 kts 138°
2026-05-07 19:09 54.86186 -2.21252 35535 ft 417 kts 138°
2026-05-07 19:09 54.84118 -2.17720 35732 ft 418 kts 138°
2026-05-07 19:09 54.82044 -2.14180 35911 ft 419 kts 138°
2026-05-07 19:09 54.79966 -2.10632 36099 ft 420 kts 138°
2026-05-07 19:10 54.77884 -2.07074 36288 ft 421 kts 138°
2026-05-07 19:10 54.75793 -2.03506 36474 ft 422 kts 138°
2026-05-07 19:10 54.73697 -1.99939 36653 ft 423 kts 138°
2026-05-07 19:10 54.71594 -1.96371 36828 ft 424 kts 138°
2026-05-07 19:11 54.69485 -1.92801 36985 ft 425 kts 138°
2026-05-07 19:11 54.67372 -1.89235 37015 ft 424 kts 138°
2026-05-07 19:11 54.63151 -1.82132 37021 ft 423 kts 138°
2026-05-07 19:12 54.58933 -1.75037 37024 ft 423 kts 138°
2026-05-07 19:12 54.54709 -1.67956 37035 ft 424 kts 138°
2026-05-07 19:13 54.50482 -1.60891 37020 ft 424 kts 138°
2026-05-07 19:13 54.46250 -1.53834 37021 ft 424 kts 138°
2026-05-07 19:14 54.42015 -1.46792 37009 ft 424 kts 138°
2026-05-07 19:14 54.37771 -1.39772 37012 ft 424 kts 138°
2026-05-07 19:15 54.33549 -1.32808 37026 ft 424 kts 138°
2026-05-07 19:15 54.29299 -1.25802 37021 ft 424 kts 138°
2026-05-07 19:16 54.25045 -1.18812 37019 ft 424 kts 138°
2026-05-07 19:16 54.20784 -1.11839 37022 ft 424 kts 138°
2026-05-07 19:17 54.16512 -1.04885 37021 ft 424 kts 139°
2026-05-07 19:17 54.12233 -0.97927 37025 ft 425 kts 138°
2026-05-07 19:18 54.07951 -0.90986 37031 ft 425 kts 139°
2026-05-07 19:18 54.03653 -0.84071 37034 ft 425 kts 141°
2026-05-07 19:19 53.98895 -0.78173 37033 ft 423 kts 147°
2026-05-07 19:19 53.94043 -0.72480 37039 ft 424 kts 147°
2026-05-07 19:20 53.89188 -0.66800 37039 ft 424 kts 147°
2026-05-07 19:20 53.84326 -0.61129 37040 ft 425 kts 147°
2026-05-07 19:21 53.79449 -0.55470 37040 ft 425 kts 147°
2026-05-07 19:21 53.74573 -0.49815 37039 ft 425 kts 147°
2026-05-07 19:22 53.69721 -0.44198 37039 ft 426 kts 147°
2026-05-07 19:22 53.64830 -0.38557 37038 ft 426 kts 147°
2026-05-07 19:23 53.59931 -0.32922 37039 ft 427 kts 146°
2026-05-07 19:23 53.56285 -0.27193 37035 ft 431 kts 130°
2026-05-07 19:24 53.52676 -0.19117 37035 ft 432 kts 129°
2026-05-07 19:24 53.49050 -0.11054 37036 ft 433 kts 129°
2026-05-07 19:25 53.45402 -0.02990 37043 ft 434 kts 129°
2026-05-07 19:25 53.41776 0.05015 37048 ft 434 kts 129°
2026-05-07 19:26 53.38125 0.13069 37052 ft 434 kts 129°
2026-05-07 19:26 53.34461 0.21123 37053 ft 435 kts 129°
2026-05-07 19:27 53.30786 0.29166 37058 ft 435 kts 129°
2026-05-07 19:27 53.27103 0.37195 37063 ft 435 kts 129°
2026-05-07 19:28 53.23410 0.45214 37064 ft 436 kts 129°
2026-05-07 19:28 53.19712 0.53227 37065 ft 436 kts 130°
2026-05-07 19:29 53.16002 0.61233 37071 ft 436 kts 130°
2026-05-07 19:29 53.12294 0.69234 37078 ft 436 kts 129°
2026-05-07 19:30 53.08577 0.77224 37078 ft 437 kts 129°
2026-05-07 19:30 53.04852 0.85199 37076 ft 437 kts 130°
2026-05-07 19:31 53.01114 0.93162 37081 ft 437 kts 130°
2026-05-07 19:31 52.97998 1.01824 37084 ft 441 kts 112°
2026-05-07 19:32 52.96523 1.11729 36828 ft 445 kts 102°
2026-05-07 19:32 52.95942 1.16767 36569 ft 444 kts 102°
2026-05-07 19:32 52.95360 1.21791 36313 ft 443 kts 102°
2026-05-07 19:33 52.94783 1.26736 36064 ft 443 kts 102°
2026-05-07 19:33 52.94200 1.31734 35813 ft 440 kts 102°
2026-05-07 19:33 52.93619 1.36707 35562 ft 438 kts 102°
2026-05-07 19:33 52.93040 1.41644 35318 ft 435 kts 103°
2026-05-07 19:34 52.92461 1.46550 35080 ft 432 kts 103°
2026-05-07 19:34 52.91882 1.51420 34836 ft 430 kts 103°
2026-05-07 19:34 52.91302 1.56258 34594 ft 427 kts 103°
2026-05-07 19:34 52.90726 1.61059 34357 ft 424 kts 103°
2026-05-07 19:35 52.90155 1.65837 34117 ft 421 kts 103°
2026-05-07 19:35 52.89587 1.70586 33839 ft 419 kts 103°
2026-05-07 19:35 52.89018 1.75302 33565 ft 417 kts 103°
2026-05-07 19:35 52.88449 1.79994 33261 ft 413 kts 103°
2026-05-07 19:36 52.87885 1.84631 32777 ft 409 kts 103°
2026-05-07 19:36 52.87324 1.89226 32290 ft 406 kts 103°
2026-05-07 19:36 52.86767 1.93791 31807 ft 403 kts 103°
2026-05-07 19:36 52.86212 1.98317 31337 ft 400 kts 103°
2026-05-07 19:37 52.85657 2.02808 30863 ft 397 kts 103°
2026-05-07 19:37 52.85105 2.07264 30412 ft 394 kts 103°
2026-05-07 19:37 52.84554 2.11685 29931 ft 391 kts 103°
2026-05-07 19:37 52.84006 2.16060 29487 ft 386 kts 103°
2026-05-07 19:38 52.83466 2.20377 29054 ft 381 kts 103°
2026-05-07 19:38 52.82935 2.24634 28638 ft 376 kts 103°
2026-05-07 19:38 52.82408 2.28844 28226 ft 371 kts 103°
2026-05-07 19:38 52.81883 2.32998 27823 ft 367 kts 103°
2026-05-07 19:39 52.81361 2.37109 27408 ft 363 kts 103°
2026-05-07 19:39 52.80844 2.41175 27012 ft 360 kts 103°
2026-05-07 19:39 52.80331 2.45205 26592 ft 357 kts 103°
2026-05-07 19:39 52.79821 2.49206 26182 ft 354 kts 103°
2026-05-07 19:40 52.79312 2.53190 25775 ft 358 kts 103°
2026-05-07 19:40 52.78798 2.57206 25352 ft 364 kts 103°
2026-05-07 19:40 52.78263 2.61355 24915 ft 365 kts 103°
2026-05-07 19:40 52.77734 2.65449 24491 ft 364 kts 103°
2026-05-07 19:41 52.77205 2.69524 24067 ft 362 kts 103°
2026-05-07 19:41 52.76678 2.73579 23638 ft 361 kts 103°
2026-05-07 19:41 52.76154 2.77616 23172 ft 359 kts 103°
2026-05-07 19:41 52.75634 2.81627 22756 ft 356 kts 103°
2026-05-07 19:42 52.75115 2.85615 22342 ft 354 kts 103°
2026-05-07 19:42 52.74593 2.89577 21926 ft 352 kts 103°
2026-05-07 19:42 52.74071 2.93507 21518 ft 350 kts 104°
2026-05-07 19:42 52.73542 2.97363 21113 ft 348 kts 107°
2026-05-07 19:43 52.72676 3.01110 20703 ft 344 kts 119°
2026-05-07 19:43 52.71514 3.04471 20306 ft 341 kts 122°
2026-05-07 19:43 52.70326 3.07848 19908 ft 340 kts 122°
2026-05-07 19:43 52.69150 3.11212 19506 ft 338 kts 121°
2026-05-07 19:44 52.67979 3.14562 19115 ft 337 kts 121°
2026-05-07 19:44 52.66810 3.17898 18731 ft 335 kts 122°
2026-05-07 19:44 52.65647 3.21217 18320 ft 335 kts 121°
2026-05-07 19:44 52.64483 3.24529 17910 ft 333 kts 121°
2026-05-07 19:45 52.63326 3.27819 17509 ft 331 kts 122°
2026-05-07 19:45 52.62173 3.31080 17120 ft 329 kts 122°
2026-05-07 19:45 52.61022 3.34323 16738 ft 327 kts 122°
2026-05-07 19:45 52.59876 3.37553 16356 ft 326 kts 122°
2026-05-07 19:46 52.58821 3.40845 15975 ft 326 kts 113°
2026-05-07 19:46 52.58191 3.44430 15591 ft 327 kts 101°
2026-05-07 19:46 52.57813 3.48110 15209 ft 326 kts 101°
2026-05-07 19:46 52.57427 3.51785 14828 ft 326 kts 101°
2026-05-07 19:47 52.57036 3.55455 14443 ft 326 kts 101°
2026-05-07 19:47 52.56641 3.59112 14064 ft 325 kts 101°
2026-05-07 19:47 52.56245 3.62774 13658 ft 325 kts 101°
2026-05-07 19:47 52.55853 3.66420 13264 ft 323 kts 101°
2026-05-07 19:48 52.55463 3.70044 12895 ft 321 kts 101°
2026-05-07 19:48 52.55075 3.73636 12517 ft 319 kts 101°
2026-05-07 19:48 52.54688 3.77217 12147 ft 317 kts 101°
2026-05-07 19:48 52.54306 3.80768 11771 ft 315 kts 101°
2026-05-07 19:49 52.53922 3.84305 11406 ft 313 kts 101°
2026-05-07 19:49 52.53537 3.87810 11042 ft 311 kts 101°
2026-05-07 19:49 52.53153 3.91291 10676 ft 309 kts 101°
2026-05-07 19:49 52.52768 3.94755 10321 ft 307 kts 101°
2026-05-07 19:50 52.52218 3.98111 9995 ft 302 kts 113°
2026-05-07 19:50 52.51439 4.01250 9813 ft 293 kts 112°
2026-05-07 19:50 52.50714 4.03628 9619 ft 287 kts 126°
2026-05-07 19:50 52.49379 4.06026 9479 ft 285 kts 137°
2026-05-07 19:51 52.47951 4.08273 9344 ft 284 kts 137°
2026-05-07 19:51 52.46544 4.10474 9212 ft 283 kts 137°
2026-05-07 19:51 52.45116 4.12693 9073 ft 282 kts 137°
2026-05-07 19:51 52.43689 4.14907 8950 ft 282 kts 137°
2026-05-07 19:52 52.42269 4.17112 8797 ft 281 kts 137°
2026-05-07 19:52 52.40856 4.19302 8584 ft 278 kts 137°
2026-05-07 19:52 52.39460 4.21470 8217 ft 275 kts 137°
2026-05-07 19:52 52.38074 4.23619 7821 ft 274 kts 138°
2026-05-07 19:53 52.36693 4.25757 7433 ft 273 kts 138°
2026-05-07 19:53 52.35863 4.27046 7186 ft 272 kts 137°
2026-05-07 19:53 52.34484 4.29180 6783 ft 272 kts 138°
2026-05-07 19:53 52.33108 4.31297 6363 ft 272 kts 138°
2026-05-07 19:54 52.31733 4.33409 5929 ft 271 kts 138°
2026-05-07 19:54 52.30366 4.35508 5534 ft 269 kts 138°
2026-05-07 19:54 52.29009 4.37593 5151 ft 267 kts 137°
2026-05-07 19:54 52.27680 4.39638 5081 ft 261 kts 137°
2026-05-07 19:55 52.26344 4.41652 4925 ft 262 kts 142°
2026-05-07 19:55 52.24830 4.43308 4371 ft 261 kts 148°
2026-05-07 19:55 52.23300 4.44880 3672 ft 259 kts 145°
2026-05-07 19:55 52.22028 4.46824 3384 ft 242 kts 126°
2026-05-07 19:56 52.21243 4.49113 3200 ft 223 kts 110°
2026-05-07 19:56 52.20979 4.51510 3059 ft 211 kts 89°
2026-05-07 19:56 52.21276 4.53817 2833 ft 209 kts 67°
2026-05-07 19:56 52.22006 4.55860 2566 ft 209 kts 59°
2026-05-07 19:57 52.22785 4.57858 2293 ft 209 kts 58°
2026-05-07 19:57 52.23561 4.59858 2004 ft 207 kts 58°
2026-05-07 19:57 52.24315 4.61805 1747 ft 197 kts 58°
2026-05-07 19:57 52.25018 4.63623 1470 ft 180 kts 58°
2026-05-07 19:58 52.25653 4.65269 1242 ft 163 kts 58°
2026-05-07 19:58 52.26234 4.66775 1016 ft 151 kts 58°
2026-05-07 19:58 52.26772 4.68170 834 ft 138 kts 58°
2026-05-07 19:58 52.27275 4.69474 639 ft 134 kts 58°
2026-05-07 19:59 52.27762 4.70741 462 ft 131 kts 57°
2026-05-07 19:59 52.28250 4.72006 289 ft 131 kts 58°
2026-05-07 19:59 52.28733 4.73259 105 ft 130 kts 58°
2026-05-07 19:59 52.29201 4.74474 10 ft 121 kts 57°
2026-05-07 20:00 52.29596 4.75506 -2 ft 90 kts 57°
2026-05-07 20:00 52.29856 4.76188 -3 ft 50 kts 59°
2026-05-07 20:00 52.30009 4.76512 -2 ft 30 kts 35°
2026-05-07 20:00 52.30178 4.76668 -1 ft 24 kts 28°
2026-05-07 20:01 52.30276 4.76754 -1 ft 7 kts 32°
2026-05-07 20:01 52.30311 4.76819 -1 ft 8 kts 57°
2026-05-07 20:01 52.30347 4.76912 -1 ft 11 kts 57°
2026-05-07 20:01 52.30392 4.77027 -1 ft 13 kts 57°
2026-05-07 20:02 52.30446 4.77171 -1 ft 17 kts 58°
2026-05-07 20:02 52.30513 4.77347 -1 ft 19 kts 57°
2026-05-07 20:02 52.30591 4.77538 -1 ft 21 kts 50°
2026-05-07 20:02 52.30728 4.77594 -1 ft 22 kts
2026-05-07 20:03 52.30882 4.77610 -1 ft 21 kts
2026-05-07 20:03 52.31016 4.77623 -1 ft 20 kts
2026-05-07 20:03 52.31153 4.77637 -1 ft 20 kts
2026-05-07 20:03 52.31297 4.77651 -1 ft 21 kts
2026-05-07 20:04 52.31446 4.77634 -1 ft 22 kts 336°
2026-05-07 20:04 52.31562 4.77465 -1 ft 23 kts 300°
2026-05-07 20:04 52.31571 4.77204 -1 ft 24 kts 268°
2026-05-07 20:04 52.31564 4.76924 -1 ft 25 kts 266°
2026-05-07 20:05 52.31554 4.76636 -1 ft 25 kts 265°
2026-05-07 20:05 52.31542 4.76347 -1 ft 26 kts 266°
2026-05-07 20:05 52.31534 4.76053 -1 ft 26 kts 265°
2026-05-07 20:05 52.31522 4.75757 -1 ft 26 kts 268°
2026-05-07 20:06 52.31512 4.75502 -1 ft 17 kts 255°
2026-05-07 20:06 52.31419 4.75444 -1 ft 15 kts 179°
2026-05-07 20:06 52.31317 4.75450 -1 ft 14 kts 175°
2026-05-07 20:06 52.31224 4.75462 -1 ft 13 kts 175°
2026-05-07 20:07 52.31137 4.75459 -1 ft 12 kts 190°
2026-05-07 20:07 52.31069 4.75495 -1 ft 8 kts 148°
2026-05-07 20:07 52.31052 4.75511 -1 ft 1 kts 148°
2026-05-07 20:07 52.31047 4.75517 -1 ft 0 kts 148°
2026-05-07 20:08 52.31045 4.75518 -1 ft 0 kts 148°
2026-05-07 20:08 52.31045 4.75519 -1 ft 0 kts 148°